Location: Genolier
(46.4316°N, 6.2226°E)
Time: 00:50:14
(UTC+00:00)

Daily predictions for brighter satellites

Satellite Brightness Start Highest point End
(mag) Time Altitude Azimuth Time Altitude Azimuth Time Altitude Azimuth
SL-16 R/B 4.1 00:12:20 29° NNE 00:12:20 29° NNE 00:16:04 10° N
Cosmos 1943 Rocket 4.4 00:17:16 20° N 00:17:16 20° N 00:19:13 10° NNE
Cosmos 2297 Rocket 4.3 00:25:41 10° N 00:28:49 23° NNE 00:28:49 23° NNE
Resurs 1-4 Rocket 4.4 00:33:07 10° NNE 00:34:54 20° NE 00:34:54 20° NE
Cosmos 2369 Rocket 4.3 00:41:05 21° N 00:41:05 21° N 00:43:23 10° NNE
CZ-4C R/B 4.3 00:47:10 21° NNW 00:47:21 21° NNW 00:52:14 10° NNE
Cosmos 2227 Rocket 3.8 01:22:19 10° NNW 01:25:13 29° N 01:25:13 29° N
Lacrosse 5 4.1 01:32:48 18° E 01:32:48 18° E 01:34:36 10° ENE
USA 234 3.8 01:27:01 10° E 01:33:18 53° NNE 01:37:44 20° NW
ADEOS II 3.3 01:34:49 10° NNE 01:38:28 39° NE 01:38:28 39° NE
Cosmos 2181 Rocket 4.5 01:47:57 54° N 01:47:57 54° N 01:52:37 10° N
IDEFIX/ARIANE 42P 4.3 01:48:23 10° NE 01:52:45 26° E 01:53:40 25° ESE
SL-16 R/B 4.0 01:57:26 25° NW 01:57:26 25° NW 02:00:00 10° NNW
ARIANE 5 R/B 3.6 01:57:11 10° NNE 02:01:51 38° E 02:01:51 38° E
IRS-1D 4.2 01:57:43 10° NNE 02:01:47 53° NNE 02:01:47 53° NNE
CZ-2D R/B 3.4 01:58:58 10° N 02:02:04 32° NNW 02:02:04 32° NNW
ATLAS 5 CENTAUR R/B 3.4 02:07:56 27° N 02:07:56 27° N 02:10:39 10° NNE
Cosmos 2297 Rocket 4.2 02:09:19 10° NNW 02:10:32 17° NW 02:10:32 17° NW
Resurs 1-4 Rocket 3.5 02:12:58 10° N 02:15:58 28° NNW 02:15:58 28° NNW
Cosmos 2082 3.8 02:13:31 10° NNW 02:19:13 74° ENE 02:20:23 56° SE
USA 305 4.5 02:22:42 32° E 02:22:42 32° E 02:25:16 10° ENE
USA 306 4.3 02:26:37 35° E 02:26:37 35° E 02:29:22 10° ENE
X-37B 3.8 02:29:08 12° E 02:29:08 12° E 02:29:25 10° E
CZ-2D R/B 4.5 02:25:00 10° NNE 02:28:45 43° E 02:28:45 43° E
SJ 16-02 4.1 02:26:06 10° N 02:29:14 19° NE 02:32:20 10° E
Meteor 1-25 Rocket 4.3 02:25:33 10° N 02:31:24 78° ENE 02:33:00 49° SSE
Cosmos 1697 Rocket 2.6 02:32:33 73° SSE 02:32:53 76° ESE 02:38:30 10° NNE
ASTEX 1 4.0 02:30:08 10° NNE 02:35:02 53° E 02:36:23 41° SE
IRS-P3 4.0 02:30:16 10° NNE 02:35:28 79° NW 02:35:28 79° NW
H-2A R/B 3.8 02:32:57 10° SE 02:36:50 32° ENE 02:40:49 10° N
Cosmos 1980 Rocket 3.0 02:35:19 35° SSE 02:37:04 45° ESE 02:42:27 10° NE
USA 267 3.2 02:34:14 10° NE 02:40:48 79° NNW 02:42:17 57° WSW
Cosmos 2263 Rocket 3.7 02:40:06 10° NNW 02:45:18 36° NE 02:50:30 10° ESE
ERS-1 4.4 02:40:11 10° NNE 02:45:21 88° WNW 02:45:42 78° SSW
SL-8 R/B 3.7 02:46:01 75° N 02:46:04 75° N 02:50:50 10° E
Cosmos 1818 4.4 02:46:11 36° NW 02:46:18 36° NW 02:51:22 10° NNE
USA 307 3.1 02:52:25 68° E 02:52:25 68° E 02:56:16 10° ENE
Cosmos 1821 Rocket 3.9 02:48:31 10° NNW 02:54:46 66° W 02:56:29 47° SSW
USA 308 3.0 02:55:23 73° E 02:55:23 73° E 02:59:22 10° ENE
Cosmos 1470 Rocket 3.7 02:51:40 10° NNW 02:55:26 62° NNW 02:55:26 62° NNW
Spot 4 Rocket 4.0 02:53:04 10° NNE 02:58:15 83° ESE 02:59:44 48° S
SL-24 R/B 4.3 02:59:50 64° W 02:59:50 64° W 03:04:43 10° NNW
Landsat 5 4.1 03:00:19 10° SSE 03:04:46 62° ENE 03:09:14 10° N
Celestis-02/Orion 38 4.5 03:01:01 10° SSE 03:06:15 64° WSW 03:11:24 10° NNW
Cosmos 1934 Rocket 3.8 03:03:46 10° N 03:09:50 83° W 03:15:55 10° S
Cosmos 1782 2.6 03:10:11 78° W 03:10:11 78° W 03:14:15 10° N
Cosmos 1777 Rocket 4.0 03:05:21 10° NNW 03:10:29 57° WSW 03:12:06 40° SSW
Cosmos 1238 Rocket 4.0 03:05:26 10° N 03:12:08 89° W 03:18:19 10° S
Cosmos 1656 4.5 03:12:05 32° WNW 03:12:41 33° NW 03:17:39 10° NNE
Lacrosse 5 1.8 03:12:00 54° WSW 03:13:06 74° NW 03:18:12 10° NE
ADEOS Rocket 4.1 03:08:50 10° SE 03:15:23 50° ENE 03:21:20 10° N
CZ-4B R/B 4.2 03:13:22 10° ESE 03:15:39 19° ENE 03:18:00 10° NNE
Cosmos 1515 Rocket 3.5 03:15:07 59° SW 03:15:42 67° W 03:20:09 10° N
USA 234 3.2 03:09:46 10° SE 03:16:14 65° SW 03:22:45 10° NW
CZ-2C R/B 2.6 03:14:09 10° NNE 03:17:56 89° WNW 03:18:32 62° SSW
Meteor 1-20 Rocket 4.4 03:13:15 10° NNW 03:18:23 42° W 03:18:42 42° WSW
ADEOS II 3.2 03:15:05 10° N 03:19:20 26° WNW 03:19:23 26° WNW
Nadezhda 3 Rocket 4.2 03:18:39 38° WSW 03:20:17 47° WNW 03:26:13 10° N
USA 276 2.6 03:21:38 52° N 03:21:38 52° N 03:24:43 10° ENE
Cosmos 972 Rocket 4.2 03:24:16 41° W 03:25:08 46° WNW 03:29:53 10° N
CSL-04 DEB 4.4 03:22:06 10° SSE 03:26:23 82° WSW 03:30:46 10° NNW
Cosmos 44 3.2 03:24:49 37° SSW 03:26:31 74° ESE 03:31:08 10° NE
Cosmos 1356 3.3 03:25:07 10° NNW 03:28:27 67° W 03:28:27 67° W
MSX 3.8 03:23:00 10° N 03:28:48 74° WNW 03:32:39 22° SSW
Timation 1 Rocket 4.3 03:24:04 10° NW 03:29:58 60° WSW 03:35:50 10° S
Cosmos 921 Rocket 3.3 03:27:48 21° S 03:30:27 63° ESE 03:34:37 10° NNE
Cosmos 2278 3.7 03:28:11 33° SW 03:30:48 68° WNW 03:36:31 10° NNE
IDEFIX/ARIANE 42P 2.9 03:27:30 10° N 03:32:32 47° WNW 03:34:28 32° WSW
Cosmos 1605 Rocket 4.0 03:26:13 10° N 03:32:39 86° W 03:39:03 10° S
Cosmos 1933 Rocket 3.8 03:29:16 10° NNW 03:33:26 45° W 03:34:18 39° SW
CZ-3B R/B 3.1 03:32:05 26° WNW 03:33:39 40° N 03:42:24 10° ENE
Cosmos 2228 Rocket 2.9 03:31:12 24° SSW 03:33:52 84° W 03:38:17 10° N
Cosmos 1151 Rocket 4.4 03:37:30 22° WNW 03:37:30 22° WNW 03:40:29 10° NNW
Cosmos 2369 4.2 03:36:40 30° WSW 03:38:52 42° NW 03:44:19 10° NNE
ARIANE 5 R/B 3.4 03:36:30 10° N 03:40:56 31° WNW 03:42:10 27° W
CZ-4C R/B 3.3 03:42:39 36° SW 03:43:33 44° W 03:47:01 10° NNW
ALOS 4.0 03:43:25 10° NNE 03:47:41 34° E 03:51:56 10° SSE
IRIDIUM 106 4.2 03:43:22 10° N 03:48:37 84° W 03:53:49 10° S
Cosmos 1536 4.0 03:47:22 10° N 03:51:19 46° ENE 03:55:14 10° SSE
ATLAS 5 CENTAUR R/B 4.0 03:50:11 10° NW 03:52:26 13° NNW 03:54:50 10° NNE
Cosmos 1869 Rocket 3.4 03:48:08 10° NNW 03:52:29 71° W 03:56:47 10° S
Meteor 1-4 Rocket 2.4 03:52:40 10° S 03:56:06 82° E 03:59:38 10° NNE
Cosmos 1484 Rocket 4.2 03:52:46 10° NNE 03:56:33 40° E 04:00:19 10° SSE
USA 305 3.5 03:58:51 22° W 04:01:14 46° NNW 04:05:22 10° NE
X-37B 0.6 04:01:25 29° W 04:02:49 66° S 04:05:58 10° ESE
Cosmos 1689 Rocket 4.4 04:01:22 10° SE 04:03:58 28° ENE 04:06:36 10° N
USA 306 3.5 04:02:46 20° W 04:05:20 44° NNW 04:09:26 10° NE
Cosmos 1763 Rocket 3.8 04:01:09 10° SSW 04:06:26 72° ESE 04:11:44 10° NNE
Cosmos 1727 Rocket 4.0 04:00:06 10° S 04:06:27 82° W 04:12:50 10° N
Cosmos 389 Rocket 3.8 04:06:11 21° W 04:06:41 21° WNW 04:09:29 10° NNW
Cosmos 2100 Rocket 4.3 04:00:51 10° N 04:07:15 74° E 04:13:37 10° SSE
Meteor 1-31 Rocket 4.1 04:03:41 10° NNE 04:07:20 42° E 04:10:59 10° S
SJ 16-02 1.4 04:03:52 10° NNW 04:08:09 54° WSW 04:12:25 10° S
PSLV R/B 3.7 04:05:48 10° N 04:09:53 51° WNW 04:13:57 10° SSW
Cosmos 2360 Rocket 3.9 04:06:07 10° SSE 04:11:08 34° ESE 04:16:12 10° NE
H-2A R/B 2.9 04:09:04 10° SSW 04:12:49 28° W 04:16:39 10° NW
ERS-2 2.6 04:10:14 10° SSW 04:13:39 37° W 04:17:06 10° NNW
Cosmos 1697 Rocket 4.1 04:14:18 14° W 04:17:29 22° NW 04:21:48 10° N
CZ-2C R/B 2.7 04:12:34 10° N 04:17:33 54° WNW 04:22:33 10° SSW
NOSS 3-4 (A) 4.2 04:12:08 10° NW 04:19:04 69° NE 04:26:45 10° SE
NOSS 3-4 (C) 4.3 04:12:15 10° NW 04:19:10 68° NE 04:26:51 10° SE
Gbstr 26 Del rocket 4.4 04:11:43 10° WNW 04:19:48 80° SSW 04:26:51 10° SE
PAYLOAD A 4.2 04:16:37 10° N 04:21:03 42° WNW 04:25:27 10° SW
Cosmos 1980 Rocket 3.0 04:17:07 15° WSW 04:21:13 33° NW 04:26:20 10° NNE
USA 267 4.1 04:17:20 10° NE 04:23:21 41° NNW 04:29:22 10° W
FENGYUN 3A 3.8 04:19:50 10° NNE 04:25:15 79° ESE 04:30:39 10° S
Cosmos 2322 Rocket 2.4 04:20:39 10° SSW 04:26:18 80° ESE 04:32:02 10° NNE
SJ-6F 4.4 04:22:44 10° N 04:26:50 64° WNW 04:30:52 10° SSW
Cosmos 990 Rocket 4.1 04:22:46 10° NNW 04:27:50 55° WSW 04:32:54 10° S
NOSS 3-3 (A) 4.1 04:22:36 10° SW 04:28:17 62° NW 04:34:53 10° NE
NOSS 3-3 (C) 4.0 04:22:46 10° SW 04:28:24 63° NW 04:34:58 10° NE
SL-8 R/B 4.0 04:24:00 11° WNW 04:28:32 51° SSW 04:33:09 10° SE
Cosmos 1459 Rocket 3.9 04:22:53 10° N 04:29:01 85° W 04:35:04 10° S
CZ-4C R/B 4.4 04:22:52 10° NNW 04:29:05 35° NE 04:36:13 10° E
Cosmos 2263 Rocket 2.6 04:24:02 10° NW 04:29:17 41° WSW 04:34:33 10° S
Cosmos 1812 3.7 04:27:39 10° SW 04:30:57 27° WNW 04:34:17 10° NNW
Cosmos 468 Rocket 4.1 04:25:50 10° SSW 04:31:05 65° WNW 04:36:22 10° NNE
USA 307 3.9 04:28:36 11° W 04:32:21 36° NNW 04:36:19 10° NE
SL-16 R/B 2.2 04:28:20 10° SSW 04:34:00 76° WNW 04:39:43 10° NNE
COSMO-SKYMED 1 3.0 04:31:09 10° SSE 04:35:27 68° ENE 04:39:48 10° N
USA 308 3.9 04:31:34 10° W 04:35:28 36° NNW 04:39:26 10° NE
Cosmos 1844 Rocket 3.5 04:30:48 10° NNW 04:36:21 55° ENE 04:41:53 10° SE
SL-4 R/B 3.3 04:34:20 10° SW 04:38:45 46° SE 04:43:21 10° ENE
Cosmos 540 Rocket 3.8 04:34:33 10° SSW 04:39:41 72° ESE 04:44:52 10° NNE
Cosmos 44 Rocket 4.4 04:36:44 10° S 04:41:13 46° ESE 04:45:51 10° NE
ATLAS CENTAUR R/B 3.7 04:32:41 10° NW 04:41:46 46° NNE 04:45:32 10° E
Cosmos 1666 3.4 04:39:00 10° NNW 04:42:24 31° W 04:45:46 10° SSW
ATLAS 2AS CENTAUR R/B 3.1 04:35:37 10° NW 04:43:12 78° NE 04:50:09 10° SE
ERBS 2.4 04:43:16 10° WSW 04:46:35 59° NW 04:49:55 10° NE
CZ-4B R/B 2.3 04:45:10 10° SSW 04:47:47 24° W 04:50:28 10° NW
Cosmos 1544 4.1 04:44:49 10° N 04:48:22 52° ENE 04:51:52 10° SSE
